START_TIME,STEP,MOV.,M29,t_acc.,H22,t_acc.,H26,t_acc.,H30,t_acc.
1979-08-05 03:00:30.570 ,1,0,0.,24.0,0.,24.0,0.,24.0,0.,24.0
1979-08-05 03:00:54.570 ,2,1,0.,24.0,0.,24.0,0.,24.0,0.,24.0
1979-08-05 03:01:18.570 ,2,0,0.,24.0,0.,24.0,0.,24.0,0.,24.0
1979-08-05 03:01:42.570 ,3,1,0.,24.0,0.,24.0,0.,24.0,0.,24.0
1979-08-05 03:02:06.570 ,3,0,0.,24.0,0.,24.0,0.,24.0,0.,24.0
1979-08-05 03:02:30.570 ,4,1,0.,24.0,0.,24.0,0.,24.0,0.,24.0
1979-08-05 03:02:54.570 ,4,0,0.,24.0,0.,24.0,0.,24.0,0.,24.0
1979-08-05 03:03:18.570 ,5,1,0.,24.0,0.,24.0,0.,24.0,0.,24.0
1979-08-05 03:03:42.570 ,5,0,0.,24.0,0.,24.0,0.,24.0,0.,24.0
1979-08-05 03:04:06.570 ,6,1,0.,24.0,0.,24.0,0.,24.0,0.,24.0
1979-08-05 03:04:30.570 ,6,0,0.,24.0,0.,24.0,0.,24.0,0.,24.0
1979-08-05 03:04:54.570 ,7,1,0.,24.0,0.,24.0,0.,24.0,0.,24.0
1979-08-05 03:05:18.570 ,7,0,0.,24.0,0.,24.0,0.,24.0,0.,24.0
1979-08-05 03:05:42.570 ,7,1,0.,24.0,0.,24.0,0.,24.0,0.,24.0
1979-08-05 03:06:06.570 ,7,0,0.,24.0,0.,24.0,0.,24.0,0.,24.0
1979-08-05 03:06:30.570 ,6,1,0.,24.0,0.,24.0,0.,24.0,0.,24.0
1979-08-05 03:06:54.570 ,6,0,0.,24.0,0.,24.0,0.,24.0,0.,24.0
1979-08-05 03:07:18.570 ,5,1,0.,24.0,0.,24.0,0.,24.0,0.,24.0
1979-08-05 03:07:42.570 ,5,0,0.,24.0,0.,24.0,0.,24.0,0.,24.0
1979-08-05 03:08:06.570 ,4,1,0.,24.0,0.,24.0,0.,24.0,0.,24.0
1979-08-05 03:08:30.570 ,0,0,0.,24.0,0.,24.0,0.,24.0,0.,24.0
1979-08-05 03:08:39.570 ,0,0,0.,24.0,0.,24.0,0.,24.0,0.,24.0
1979-08-05 03:08:54.570 ,3,1,0.,24.0,0.,24.0,0.,24.0,0.,24.0
1979-08-05 03:09:18.570 ,3,0,0.,24.0,0.,24.0,0.,24.0,0.,24.0
1979-08-05 03:09:42.570 ,2,1,0.,24.0,0.,24.0,0.,24.0,0.,24.0
1979-08-05 03:10:06.570 ,2,0,0.,24.0,0.,24.0,0.,24.0,0.,24.0
1979-08-05 03:10:30.570 ,1,1,0.,24.0,0.,24.0,0.,24.0,0.,24.0
1979-08-05 03:10:54.570 ,1,0,0.,24.0,0.,24.0,0.,24.0,0.,24.0
1979-08-05 03:11:18.570 ,0,1,0.,24.0,0.,24.0,0.,24.0,0.,24.0
1979-08-05 03:11:42.570 ,0,0,0.,24.0,0.,24.0,0.,24.0,0.,24.0
1979-08-05 03:12:06.570 ,0,1,0.,24.0,0.,24.0,0.,24.0,0.,24.0
1979-08-05 03:12:30.570 ,0,0,0.,24.0,0.,24.0,0.,24.0,0.,24.0
1979-08-05 03:12:54.570 ,1,1,0.,24.0,0.,24.0,0.,24.0,0.,24.0
1979-08-05 03:13:18.570 ,1,0,0.,24.0,0.,24.0,0.,24.0,0.,24.0
1979-08-05 03:13:42.570 ,2,1,0.,24.0,0.,24.0,0.,24.0,0.,24.0
1979-08-05 03:14:06.570 ,2,0,0.,24.0,0.,24.0,0.,24.0,0.,24.0
1979-08-05 03:14:30.570 ,3,1,0.,24.0,0.,24.0,0.,24.0,0.,24.0
1979-08-05 03:14:54.570 ,3,0,0.,24.0,0.,24.0,0.,24.0,0.,24.0
1979-08-05 03:15:18.570 ,4,1,0.,24.0,0.,24.0,0.,24.0,0.,24.0
1979-08-05 03:15:42.570 ,4,0,0.,24.0,0.,24.0,0.,24.0,0.,24.0
1979-08-05 03:16:06.570 ,5,1,0.,24.0,0.,24.0,0.,24.0,0.,24.0
1979-08-05 03:16:30.570 ,5,0,0.,24.0,0.,24.0,0.,24.0,0.,24.0
1979-08-05 03:16:54.570 ,6,1,0.,24.0,0.,24.0,0.,24.0,0.,24.0
1979-08-05 03:17:18.570 ,6,0,0.,24.0,0.,24.0,0.,24.0,0.,24.0
1979-08-05 03:17:42.570 ,7,1,1.,24.0,0.,24.0,0.,24.0,0.,24.0
1979-08-05 03:18:06.570 ,7,0,0.,24.0,0.,24.0,0.,24.0,0.,24.0
1979-08-05 03:18:30.570 ,7,1,0.,24.0,0.,24.0,0.,24.0,0.,24.0
1979-08-05 03:18:54.570 ,7,0,0.,24.0,0.,24.0,0.,24.0,0.,24.0
1979-08-05 03:19:18.570 ,6,1,0.,24.0,0.,24.0,0.,24.0,0.,24.0
1979-08-05 03:19:42.570 ,6,0,0.,24.0,0.,24.0,0.,24.0,0.,24.0
1979-08-05 03:20:06.570 ,5,1,0.,24.0,0.,24.0,0.,24.0,0.,24.0
1979-08-05 03:20:30.570 ,5,0,0.,24.0,0.,24.0,0.,24.0,0.,24.0
1979-08-05 03:20:54.570 ,4,1,0.,24.0,0.,24.0,0.,24.0,0.,24.0
1979-08-05 03:21:18.570 ,0,0,0.,24.0,0.,24.0,0.,24.0,0.,24.0
1979-08-05 03:21:42.570 ,3,1,0.,24.0,0.,24.0,0.,24.0,0.,24.0
1979-08-05 03:22:06.570 ,3,0,0.,24.0,0.,24.0,0.,24.0,0.,24.0
1979-08-05 03:22:30.570 ,2,1,0.,24.0,0.,24.0,0.,24.0,0.,24.0
1979-08-05 03:22:54.570 ,2,0,0.,24.0,0.,24.0,0.,24.0,0.,24.0
1979-08-05 03:23:18.570 ,1,1,0.,24.0,0.,24.0,0.,24.0,0.,24.0
1979-08-05 03:23:42.570 ,1,0,0.,24.0,0.,24.0,0.,24.0,0.,24.0
1979-08-05 03:24:06.570 ,0,0,,0,,0,,0,,0
1979-08-05 03:24:30.570 ,0,0,0.,24.0,0.,24.0,0.,24.0,0.,24.0
1979-08-05 03:24:54.570 ,0,1,0.,24.0,0.,24.0,0.,24.0,0.,24.0
1979-08-05 03:25:18.570 ,0,0,0.,24.0,0.,24.0,0.,24.0,0.,24.0
1979-08-05 03:25:42.570 ,1,1,0.,24.0,0.,24.0,0.,24.0,0.,24.0
1979-08-05 03:26:06.570 ,1,0,0.,24.0,0.,24.0,0.,24.0,0.,24.0
1979-08-05 03:26:30.570 ,2,1,0.,24.0,0.,24.0,0.,24.0,0.,24.0
1979-08-05 03:26:54.570 ,2,0,0.,24.0,0.,24.0,0.,24.0,0.,24.0
1979-08-05 03:27:18.570 ,3,1,0.,24.0,0.,24.0,0.,24.0,0.,24.0
1979-08-05 03:27:42.570 ,3,0,0.,24.0,0.,24.0,0.,24.0,0.,24.0
1979-08-05 03:28:06.570 ,4,1,0.,24.0,0.,24.0,0.,24.0,0.,24.0
1979-08-05 03:28:30.570 ,4,0,0.,24.0,0.,24.0,0.,24.0,0.,24.0
1979-08-05 03:28:54.570 ,5,1,0.,24.0,0.,24.0,0.,24.0,0.,24.0
1979-08-05 03:29:18.570 ,5,0,0.,24.0,0.,24.0,0.,24.0,0.,24.0
1979-08-05 03:29:42.570 ,6,1,0.,24.0,0.,24.0,0.,24.0,0.,24.0
1979-08-05 03:30:06.570 ,6,0,0.,24.0,0.,24.0,0.,24.0,0.,24.0
1979-08-05 03:30:30.570 ,7,0,0.,24.0,0.,24.0,0.,24.0,0.,24.0
1979-08-05 03:30:54.570 ,7,0,0.,24.0,0.,24.0,0.,24.0,0.,24.0
1979-08-05 03:31:18.570 ,5,1,0.,24.0,0.,24.0,0.,24.0,0.,24.0
1979-08-05 03:31:42.570 ,1,1,0.,24.0,0.,24.0,0.,24.0,0.,24.0
1979-08-05 03:32:06.570 ,2,1,0.,24.0,0.,24.0,0.,24.0,0.,24.0
1979-08-05 03:32:30.570 ,6,1,0.,24.0,0.,24.0,0.,24.0,0.,24.0
1979-08-05 03:32:54.570 ,5,1,0.,24.0,0.,24.0,0.,24.0,0.,24.0
1979-08-05 03:33:18.570 ,1,1,0.,24.0,0.,24.0,0.,24.0,0.,24.0
1979-08-05 03:33:42.570 ,2,1,0.,24.0,0.,24.0,0.,24.0,0.,24.0
1979-08-05 03:34:06.570 ,6,1,0.,24.0,0.,24.0,0.,24.0,0.,24.0
1979-08-05 03:34:30.570 ,5,1,0.,24.0,0.,24.0,0.,24.0,0.,24.0
1979-08-05 03:34:54.570 ,1,1,0.,24.0,0.,24.0,0.,24.0,0.,24.0
1979-08-05 03:35:18.570 ,2,1,0.,24.0,0.,24.0,0.,24.0,0.,24.0
1979-08-05 03:35:42.570 ,6,1,0.,24.0,0.,24.0,0.,24.0,0.,24.0
1979-08-05 03:36:06.570 ,5,1,0.,24.0,0.,24.0,0.,24.0,0.,24.0
1979-08-05 03:36:30.570 ,1,1,0.,24.0,0.,24.0,0.,24.0,0.,24.0
1979-08-05 03:36:54.570 ,2,1,0.,24.0,0.,24.0,0.,24.0,0.,24.0
1979-08-05 03:37:18.570 ,6,1,0.,24.0,0.,24.0,0.,24.0,0.,24.0
1979-08-05 03:37:42.570 ,5,1,0.,24.0,0.,24.0,0.,24.0,0.,24.0
1979-08-05 03:38:06.570 ,1,1,1.,24.0,0.,24.0,0.,24.0,0.,24.0
1979-08-05 03:38:30.570 ,2,1,0.,24.0,0.,24.0,0.,24.0,0.,24.0
1979-08-05 03:38:54.570 ,6,1,0.,24.0,0.,24.0,0.,24.0,0.,24.0
1979-08-05 03:39:18.570 ,5,1,0.,24.0,0.,24.0,0.,24.0,0.,24.0
1979-08-05 03:39:42.570 ,1,1,0.,24.0,0.,24.0,0.,24.0,0.,24.0
1979-08-05 03:40:06.570 ,2,1,0.,24.0,0.,24.0,0.,24.0,0.,24.0
1979-08-05 03:40:30.570 ,6,1,0.,24.0,0.,24.0,0.,24.0,0.,24.0
1979-08-05 03:40:54.570 ,5,1,0.,24.0,0.,24.0,0.,24.0,0.,24.0
1979-08-05 03:41:18.570 ,1,1,0.,24.0,0.,24.0,0.,24.0,0.,24.0
1979-08-05 03:41:42.570 ,0,0,0.,24.0,0.,24.0,0.,24.0,0.,24.0
1979-08-05 03:42:06.570 ,0,0,0.,24.0,0.,24.0,0.,24.0,0.,24.0
1979-08-05 03:42:30.570 ,5,1,0.,24.0,0.,24.0,0.,24.0,0.,24.0
1979-08-05 03:42:54.570 ,5,0,0.,24.0,0.,24.0,0.,24.0,0.,24.0
1979-08-05 03:43:18.570 ,4,1,0.,24.0,0.,24.0,0.,24.0,0.,24.0
1979-08-05 03:43:42.570 ,4,0,0.,24.0,0.,24.0,0.,24.0,0.,24.0
1979-08-05 03:44:06.570 ,3,1,0.,24.0,0.,24.0,0.,24.0,0.,24.0
1979-08-05 03:44:30.570 ,3,0,0.,24.0,0.,24.0,0.,24.0,0.,24.0
1979-08-05 03:44:54.570 ,2,1,0.,24.0,0.,24.0,0.,24.0,0.,24.0
1979-08-05 03:45:18.570 ,2,0,0.,24.0,0.,24.0,0.,24.0,0.,24.0
1979-08-05 03:45:42.570 ,1,1,0.,24.0,0.,24.0,0.,24.0,0.,24.0
1979-08-05 03:46:06.570 ,1,0,0.,24.0,0.,24.0,0.,24.0,0.,24.0
1979-08-05 03:46:30.570 ,0,1,0.,24.0,0.,24.0,0.,24.0,0.,24.0
1979-08-05 03:46:54.570 ,0,0,0.,24.0,0.,24.0,0.,24.0,0.,24.0
1979-08-05 03:47:18.570 ,0,1,0.,24.0,0.,24.0,0.,24.0,0.,24.0
1979-08-05 03:47:42.570 ,0,0,0.,24.0,0.,24.0,0.,24.0,0.,24.0
1979-08-05 03:48:06.570 ,1,1,0.,24.0,0.,24.0,0.,24.0,0.,24.0
1979-08-05 03:48:30.570 ,1,0,0.,24.0,0.,24.0,0.,24.0,0.,24.0
1979-08-05 03:48:54.570 ,2,1,0.,24.0,0.,24.0,0.,24.0,0.,24.0
1979-08-05 03:49:18.570 ,2,0,0.,24.0,0.,24.0,0.,24.0,0.,24.0
1979-08-05 03:49:42.570 ,3,1,0.,24.0,0.,24.0,0.,24.0,0.,24.0
1979-08-05 03:50:06.570 ,3,0,0.,24.0,0.,24.0,0.,24.0,0.,24.0
1979-08-05 03:50:30.570 ,4,1,0.,24.0,0.,24.0,0.,24.0,0.,24.0
1979-08-05 03:50:54.570 ,4,0,0.,24.0,0.,24.0,0.,24.0,0.,24.0
1979-08-05 03:51:18.570 ,5,1,0.,24.0,0.,24.0,0.,24.0,0.,24.0
1979-08-05 03:51:42.570 ,5,0,0.,24.0,0.,24.0,0.,24.0,0.,24.0
1979-08-05 03:52:06.570 ,6,1,0.,24.0,0.,24.0,0.,24.0,0.,24.0
1979-08-05 03:52:30.570 ,6,0,0.,24.0,0.,24.0,0.,24.0,0.,24.0
1979-08-05 03:52:54.570 ,7,1,0.,24.0,0.,24.0,0.,24.0,0.,24.0
1979-08-05 03:53:18.570 ,7,0,0.,24.0,0.,24.0,0.,24.0,0.,24.0
1979-08-05 03:53:42.570 ,7,1,1.,24.0,0.,24.0,0.,24.0,0.,24.0
1979-08-05 03:54:06.570 ,7,0,0.,24.0,0.,24.0,0.,24.0,0.,24.0
1979-08-05 03:54:30.570 ,6,1,0.,24.0,0.,24.0,0.,24.0,0.,24.0
1979-08-05 03:54:54.570 ,6,0,0.,24.0,0.,24.0,0.,24.0,0.,24.0
1979-08-05 03:55:18.570 ,5,1,0.,24.0,0.,24.0,0.,24.0,0.,24.0
1979-08-05 03:55:42.570 ,5,0,0.,24.0,0.,24.0,0.,24.0,0.,24.0
1979-08-05 03:56:06.570 ,4,1,1.,24.0,0.,24.0,0.,24.0,0.,24.0
1979-08-05 03:56:30.570 ,4,0,0.,24.0,0.,24.0,0.,24.0,0.,24.0
1979-08-05 03:56:54.560 ,3,1,0.,24.0,0.,24.0,0.,24.0,0.,24.0
1979-08-05 03:57:18.560 ,3,0,0.,24.0,0.,24.0,0.,24.0,0.,24.0
1979-08-05 03:57:42.560 ,2,1,0.,24.0,0.,24.0,0.,24.0,0.,24.0
1979-08-05 03:58:06.560 ,0,0,1.,24.0,0.,24.0,0.,24.0,0.,24.0
1979-08-05 03:58:30.560 ,1,1,0.,24.0,0.,24.0,0.,24.0,0.,24.0
1979-08-05 03:58:54.560 ,1,0,0.,24.0,0.,24.0,0.,24.0,0.,24.0
1979-08-05 03:59:18.560 ,0,1,0.,24.0,0.,24.0,0.,24.0,0.,24.0
1979-08-05 03:59:42.560 ,0,0,0.,24.0,0.,24.0,0.,24.0,0.,24.0
1979-08-05 04:00:06.570 ,0,1,0.,24.0,0.,24.0,0.,24.0,0.,24.0
1979-08-05 04:00:30.570 ,0,0,0.,24.0,0.,24.0,0.,24.0,1.,24.0
1979-08-05 04:00:54.570 ,1,1,0.,24.0,0.,24.0,0.,24.0,0.,24.0
1979-08-05 04:01:18.570 ,1,0,0.,24.0,0.,24.0,0.,24.0,0.,24.0
1979-08-05 04:01:42.570 ,2,1,0.,24.0,0.,24.0,0.,24.0,0.,24.0
1979-08-05 04:02:06.570 ,2,0,0.,24.0,0.,24.0,0.,24.0,0.,24.0
1979-08-05 04:02:30.570 ,3,1,0.,24.0,0.,24.0,0.,24.0,0.,24.0
1979-08-05 04:02:54.570 ,3,0,0.,24.0,0.,24.0,0.,24.0,0.,24.0
1979-08-05 04:03:18.570 ,4,1,0.,24.0,0.,24.0,0.,24.0,0.,24.0
1979-08-05 04:03:42.570 ,4,0,0.,24.0,0.,24.0,0.,24.0,0.,24.0
1979-08-05 04:04:06.560 ,5,1,0.,24.0,0.,24.0,0.,24.0,0.,24.0
1979-08-05 04:04:30.570 ,5,0,0.,24.0,0.,24.0,0.,24.0,0.,24.0
1979-08-05 04:04:54.570 ,6,1,0.,24.0,0.,24.0,0.,24.0,0.,24.0
1979-08-05 04:05:18.570 ,6,0,0.,24.0,0.,24.0,0.,24.0,0.,24.0
1979-08-05 04:05:42.570 ,7,1,1.,24.0,0.,24.0,0.,24.0,0.,24.0
1979-08-05 04:06:06.570 ,7,0,0.,24.0,0.,24.0,0.,24.0,0.,24.0
1979-08-05 04:06:30.570 ,7,1,0.,24.0,0.,24.0,0.,24.0,0.,24.0
1979-08-05 04:06:54.570 ,7,0,0.,24.0,0.,24.0,0.,24.0,0.,24.0
1979-08-05 04:07:18.570 ,6,1,0.,24.0,0.,24.0,0.,24.0,0.,24.0
1979-08-05 04:07:42.570 ,6,0,1.,24.0,0.,24.0,0.,24.0,0.,24.0
1979-08-05 04:08:06.570 ,5,1,0.,24.0,0.,24.0,0.,24.0,0.,24.0
1979-08-05 04:08:30.570 ,5,0,0.,24.0,0.,24.0,0.,24.0,0.,24.0
1979-08-05 04:08:54.570 ,4,1,0.,24.0,0.,24.0,0.,24.0,0.,24.0
1979-08-05 04:09:18.570 ,4,0,0.,24.0,0.,24.0,0.,24.0,0.,24.0
1979-08-05 04:09:42.570 ,3,1,0.,24.0,0.,24.0,0.,24.0,0.,24.0
1979-08-05 04:10:06.570 ,3,0,0.,24.0,0.,24.0,0.,24.0,0.,24.0
1979-08-05 04:10:30.570 ,2,1,0.,24.0,0.,24.0,0.,24.0,0.,24.0
1979-08-05 04:10:54.570 ,2,0,0.,24.0,0.,24.0,0.,24.0,0.,24.0
1979-08-05 04:11:18.570 ,1,1,0.,24.0,0.,24.0,0.,24.0,0.,24.0
1979-08-05 04:11:42.570 ,1,0,0.,24.0,0.,24.0,0.,24.0,0.,24.0
1979-08-05 04:12:06.570 ,0,1,0.,24.0,0.,24.0,0.,24.0,0.,24.0
1979-08-05 04:12:30.570 ,0,0,0.,24.0,0.,24.0,0.,24.0,0.,24.0
1979-08-05 04:12:54.570 ,0,1,0.,24.0,0.,24.0,0.,24.0,0.,24.0
1979-08-05 04:13:18.570 ,0,0,0.,24.0,0.,24.0,0.,24.0,0.,24.0
1979-08-05 04:13:42.570 ,1,1,0.,24.0,0.,24.0,0.,24.0,0.,24.0
1979-08-05 04:14:06.570 ,1,0,0.,24.0,0.,24.0,0.,24.0,0.,24.0
1979-08-05 04:14:30.570 ,2,1,0.,24.0,0.,24.0,0.,24.0,0.,24.0
1979-08-05 04:14:54.570 ,2,0,0.,24.0,0.,24.0,0.,24.0,0.,24.0
1979-08-05 04:15:18.570 ,3,1,0.,24.0,0.,24.0,0.,24.0,0.,24.0
1979-08-05 04:15:42.570 ,3,0,0.,24.0,0.,24.0,0.,24.0,0.,24.0
1979-08-05 04:16:06.560 ,4,1,0.,24.0,0.,24.0,0.,24.0,0.,24.0
1979-08-05 04:16:30.560 ,4,0,0.,24.0,0.,24.0,0.,24.0,0.,24.0
1979-08-05 04:16:54.560 ,5,1,0.,24.0,0.,24.0,0.,24.0,0.,24.0
1979-08-05 04:17:18.560 ,5,0,0.,24.0,0.,24.0,0.,24.0,0.,24.0
1979-08-05 04:17:42.560 ,6,1,0.,24.0,0.,24.0,0.,24.0,0.,24.0
1979-08-05 04:18:06.560 ,6,0,0.,24.0,0.,24.0,0.,24.0,0.,24.0
1979-08-05 04:18:30.560 ,7,0,0.,24.0,0.,24.0,0.,24.0,0.,24.0
1979-08-05 04:18:54.560 ,0,0,0.,24.0,0.,24.0,0.,24.0,0.,24.0
1979-08-05 04:19:03.560 ,7,0,0.,24.0,0.,24.0,0.,24.0,0.,24.0
1979-08-05 04:19:18.560 ,5,1,0.,24.0,0.,24.0,0.,24.0,0.,24.0
1979-08-05 04:19:42.560 ,1,1,0.,24.0,0.,24.0,0.,24.0,0.,24.0
1979-08-05 04:20:06.560 ,2,1,1.,24.0,0.,24.0,0.,24.0,0.,24.0
1979-08-05 04:20:30.560 ,6,1,0.,24.0,0.,24.0,0.,24.0,0.,24.0
1979-08-05 04:20:54.560 ,5,1,0.,24.0,0.,24.0,0.,24.0,0.,24.0
1979-08-05 04:21:18.560 ,1,1,0.,24.0,0.,24.0,0.,24.0,0.,24.0
1979-08-05 04:21:42.560 ,2,1,0.,24.0,0.,24.0,0.,24.0,0.,24.0
1979-08-05 04:22:06.560 ,6,1,0.,24.0,0.,24.0,0.,24.0,0.,24.0
1979-08-05 04:22:30.560 ,5,1,0.,24.0,0.,24.0,0.,24.0,0.,24.0
1979-08-05 04:22:54.560 ,0,0,0.,24.0,0.,24.0,0.,24.0,0.,24.0
1979-08-05 04:23:18.560 ,0,0,0.,24.0,0.,24.0,0.,24.0,0.,24.0
1979-08-05 04:23:42.560 ,6,1,0.,24.0,0.,24.0,0.,24.0,0.,24.0
1979-08-05 04:24:06.560 ,5,1,0.,24.0,0.,24.0,0.,24.0,0.,24.0
1979-08-05 04:24:30.560 ,1,1,0.,24.0,0.,24.0,0.,24.0,0.,24.0
1979-08-05 04:24:54.560 ,2,1,0.,24.0,0.,24.0,0.,24.0,0.,24.0
1979-08-05 04:25:18.560 ,6,1,0.,24.0,0.,24.0,0.,24.0,0.,24.0
1979-08-05 04:25:42.560 ,5,1,0.,24.0,0.,24.0,0.,24.0,0.,24.0
1979-08-05 04:26:06.560 ,1,1,0.,24.0,0.,24.0,0.,24.0,0.,24.0
1979-08-05 04:26:30.560 ,2,1,0.,24.0,0.,24.0,0.,24.0,0.,24.0
1979-08-05 04:26:54.560 ,6,1,0.,24.0,0.,24.0,0.,24.0,0.,24.0
1979-08-05 04:27:18.560 ,5,1,0.,24.0,0.,24.0,0.,24.0,0.,24.0
1979-08-05 04:27:42.560 ,1,1,0.,24.0,0.,24.0,0.,24.0,0.,24.0
1979-08-05 04:28:06.560 ,2,1,0.,24.0,0.,24.0,0.,24.0,0.,24.0
1979-08-05 04:28:30.560 ,6,1,0.,24.0,0.,24.0,0.,24.0,0.,24.0
1979-08-05 04:28:54.560 ,5,1,0.,24.0,0.,24.0,0.,24.0,0.,24.0
1979-08-05 04:29:18.560 ,1,1,0.,24.0,0.,24.0,0.,24.0,0.,24.0
1979-08-05 04:29:42.560 ,0,0,0.,24.0,0.,24.0,0.,24.0,0.,24.0
1979-08-05 04:30:06.560 ,0,0,0.,24.0,0.,24.0,0.,24.0,0.,24.0
1979-08-05 04:30:30.560 ,5,1,0.,24.0,0.,24.0,0.,24.0,0.,24.0
1979-08-05 04:30:54.560 ,5,0,0.,24.0,0.,24.0,0.,24.0,0.,24.0
1979-08-05 04:31:18.560 ,4,1,0.,24.0,0.,24.0,0.,24.0,0.,24.0
1979-08-05 04:31:42.560 ,4,0,0.,24.0,0.,24.0,0.,24.0,0.,24.0
1979-08-05 04:32:06.560 ,3,1,0.,24.0,0.,24.0,0.,24.0,0.,24.0
1979-08-05 04:32:30.560 ,3,0,,0,,0,,0,,0
1979-08-05 04:32:54.560 ,2,1,0.,24.0,0.,24.0,0.,24.0,0.,24.0
1979-08-05 04:33:18.560 ,2,0,0.,24.0,0.,24.0,0.,24.0,0.,24.0
1979-08-05 04:33:42.560 ,1,1,0.,24.0,0.,24.0,0.,24.0,0.,24.0
1979-08-05 04:34:06.560 ,1,0,0.,24.0,0.,24.0,0.,24.0,0.,24.0
1979-08-05 04:34:30.560 ,0,1,0.,24.0,0.,24.0,0.,24.0,0.,24.0
1979-08-05 04:34:54.560 ,0,0,0.,24.0,0.,24.0,0.,24.0,0.,24.0
1979-08-05 04:35:18.560 ,0,1,0.,24.0,0.,24.0,0.,24.0,0.,24.0
1979-08-05 04:35:42.560 ,0,0,0.,24.0,0.,24.0,0.,24.0,0.,24.0
1979-08-05 04:36:06.560 ,1,1,0.,24.0,0.,24.0,0.,24.0,0.,24.0
1979-08-05 04:36:30.560 ,1,0,0.,24.0,0.,24.0,0.,24.0,0.,24.0
1979-08-05 04:36:54.560 ,2,1,0.,24.0,0.,24.0,0.,24.0,0.,24.0
1979-08-05 04:37:18.560 ,2,0,0.,24.0,0.,24.0,0.,24.0,0.,24.0
1979-08-05 04:37:42.560 ,3,1,0.,24.0,0.,24.0,0.,24.0,0.,24.0
1979-08-05 04:38:06.560 ,3,0,0.,24.0,0.,24.0,0.,24.0,0.,24.0
1979-08-05 04:38:30.560 ,4,1,0.,24.0,0.,24.0,0.,24.0,0.,24.0
1979-08-05 04:38:54.560 ,4,0,0.,24.0,0.,24.0,0.,24.0,0.,24.0
1979-08-05 04:39:18.560 ,5,1,0.,24.0,0.,24.0,0.,24.0,0.,24.0
1979-08-05 04:39:42.560 ,5,0,0.,24.0,0.,24.0,0.,24.0,0.,24.0
1979-08-05 04:40:06.560 ,6,1,0.,24.0,0.,24.0,0.,24.0,0.,24.0
1979-08-05 04:40:30.560 ,6,0,0.,24.0,0.,24.0,0.,24.0,0.,24.0
1979-08-05 04:40:54.560 ,7,1,0.,24.0,0.,24.0,0.,24.0,0.,24.0
1979-08-05 04:41:18.560 ,7,0,0.,24.0,0.,24.0,0.,24.0,0.,24.0
1979-08-05 04:41:42.560 ,7,1,0.,24.0,0.,24.0,0.,24.0,0.,24.0
1979-08-05 04:42:06.560 ,7,0,0.,24.0,0.,24.0,0.,24.0,0.,24.0
1979-08-05 04:42:30.560 ,6,1,0.,24.0,0.,24.0,0.,24.0,0.,24.0
1979-08-05 04:42:54.560 ,6,0,0.,24.0,0.,24.0,0.,24.0,0.,24.0
1979-08-05 04:43:18.560 ,5,1,0.,24.0,0.,24.0,0.,24.0,0.,24.0
1979-08-05 04:43:42.560 ,5,0,0.,24.0,0.,24.0,0.,24.0,0.,24.0
1979-08-05 04:44:06.560 ,4,1,0.,24.0,0.,24.0,0.,24.0,0.,24.0
1979-08-05 04:44:30.560 ,4,0,0.,24.0,0.,24.0,0.,24.0,0.,24.0
1979-08-05 04:44:54.560 ,3,1,0.,24.0,0.,24.0,0.,24.0,0.,24.0
1979-08-05 04:45:18.560 ,3,0,0.,24.0,0.,24.0,0.,24.0,0.,24.0
1979-08-05 04:45:42.560 ,2,1,0.,24.0,0.,24.0,0.,24.0,0.,24.0
1979-08-05 04:46:06.560 ,2,0,0.,24.0,0.,24.0,0.,24.0,0.,24.0
1979-08-05 04:46:30.560 ,1,1,0.,24.0,0.,24.0,0.,24.0,0.,24.0
1979-08-05 04:46:54.560 ,1,0,0.,24.0,0.,24.0,0.,24.0,0.,24.0
1979-08-05 04:47:18.560 ,0,1,0.,24.0,0.,24.0,0.,24.0,0.,24.0
1979-08-05 04:47:42.560 ,0,0,0.,24.0,0.,24.0,0.,24.0,0.,24.0
1979-08-05 04:48:06.560 ,0,1,1.,24.0,0.,24.0,0.,24.0,0.,24.0
1979-08-05 04:48:30.560 ,0,0,0.,24.0,0.,24.0,0.,24.0,0.,24.0
1979-08-05 04:48:55.160 ,1,1,0.,24.0,0.,24.0,0.,24.0,0.,24.0
1979-08-05 04:49:18.560 ,1,0,0.,24.0,0.,24.0,0.,24.0,0.,24.0
1979-08-05 04:49:42.560 ,2,1,0.,24.0,0.,24.0,0.,24.0,0.,24.0
1979-08-05 04:50:06.560 ,2,0,0.,24.0,0.,24.0,0.,24.0,0.,24.0
1979-08-05 04:50:30.560 ,3,1,0.,24.0,0.,24.0,0.,24.0,0.,24.0
1979-08-05 04:50:54.560 ,3,0,0.,24.0,0.,24.0,0.,24.0,0.,24.0
1979-08-05 04:51:18.560 ,4,1,0.,24.0,0.,24.0,0.,24.0,0.,24.0
1979-08-05 04:51:42.560 ,4,0,0.,24.0,0.,24.0,0.,24.0,0.,24.0
1979-08-05 04:52:06.560 ,5,1,0.,24.0,0.,24.0,0.,24.0,0.,24.0
1979-08-05 04:52:30.560 ,5,0,0.,24.0,0.,24.0,0.,24.0,0.,24.0
1979-08-05 04:52:54.560 ,6,1,0.,24.0,0.,24.0,0.,24.0,0.,24.0
1979-08-05 04:53:18.560 ,6,0,0.,24.0,0.,24.0,0.,24.0,0.,24.0
1979-08-05 04:53:42.560 ,7,1,0.,24.0,0.,24.0,0.,24.0,0.,24.0
1979-08-05 04:54:06.560 ,7,0,0.,24.0,0.,24.0,0.,24.0,0.,24.0
1979-08-05 04:54:30.560 ,7,1,0.,24.0,0.,24.0,0.,24.0,0.,24.0
1979-08-05 04:54:54.560 ,7,0,0.,24.0,0.,24.0,0.,24.0,0.,24.0
1979-08-05 04:55:18.560 ,6,1,0.,24.0,0.,24.0,0.,24.0,0.,24.0
1979-08-05 04:55:42.560 ,6,0,0.,24.0,0.,24.0,0.,24.0,0.,24.0
1979-08-05 04:56:06.560 ,5,1,0.,24.0,0.,24.0,0.,24.0,0.,24.0
1979-08-05 04:56:30.560 ,5,0,0.,24.0,0.,24.0,0.,24.0,0.,24.0
1979-08-05 04:56:54.560 ,4,1,0.,24.0,0.,24.0,0.,24.0,0.,24.0
1979-08-05 04:57:18.560 ,4,0,0.,24.0,0.,24.0,0.,24.0,0.,24.0
1979-08-05 04:57:42.560 ,3,1,0.,24.0,0.,24.0,0.,24.0,0.,24.0
1979-08-05 04:58:06.560 ,3,0,0.,24.0,0.,24.0,0.,24.0,0.,24.0
1979-08-05 04:58:30.560 ,2,1,0.,24.0,0.,24.0,0.,24.0,0.,24.0
1979-08-05 04:58:54.560 ,2,0,0.,24.0,0.,24.0,0.,24.0,0.,24.0
1979-08-05 04:59:18.560 ,1,1,0.,24.0,0.,24.0,0.,24.0,0.,24.0
1979-08-05 04:59:42.560 ,1,0,0.,24.0,0.,24.0,0.,24.0,0.,24.0
1979-08-05 05:00:06.560 ,0,1,0.,24.0,0.,24.0,0.,24.0,0.,24.0
1979-08-05 05:00:30.560 ,0,0,0.,24.0,0.,24.0,0.,24.0,0.,24.0
1979-08-05 05:00:54.560 ,0,1,0.,24.0,0.,24.0,0.,24.0,0.,24.0
1979-08-05 05:01:18.560 ,0,0,0.,24.0,0.,24.0,0.,24.0,0.,24.0
1979-08-05 05:01:42.560 ,1,1,0.,24.0,0.,24.0,0.,24.0,0.,24.0
1979-08-05 05:02:06.560 ,1,0,0.,24.0,0.,24.0,0.,24.0,0.,24.0
1979-08-05 05:02:30.560 ,2,1,0.,24.0,0.,24.0,0.,24.0,0.,24.0
1979-08-05 05:02:54.560 ,2,0,0.,24.0,0.,24.0,0.,24.0,0.,24.0
1979-08-05 05:03:18.560 ,3,1,0.,24.0,0.,24.0,0.,24.0,0.,24.0
1979-08-05 05:03:42.560 ,3,0,0.,24.0,0.,24.0,0.,24.0,0.,24.0
1979-08-05 05:04:06.560 ,4,1,0.,24.0,0.,24.0,0.,24.0,0.,24.0
1979-08-05 05:04:30.560 ,4,0,0.,24.0,0.,24.0,0.,24.0,0.,24.0
1979-08-05 05:04:54.560 ,5,1,0.,24.0,0.,24.0,0.,24.0,0.,24.0
1979-08-05 05:05:18.560 ,5,0,0.,24.0,0.,24.0,0.,24.0,0.,24.0
1979-08-05 05:05:42.560 ,6,1,0.,24.0,0.,24.0,0.,24.0,0.,24.0
1979-08-05 05:06:06.560 ,6,0,0.,24.0,0.,24.0,0.,24.0,0.,24.0
1979-08-05 05:06:30.560 ,0,0,1.,24.0,0.,24.0,0.,24.0,0.,24.0
1979-08-05 05:06:54.560 ,7,0,0.,24.0,0.,24.0,0.,24.0,0.,24.0
1979-08-05 05:07:18.560 ,5,1,0.,24.0,0.,24.0,0.,24.0,0.,24.0
1979-08-05 05:07:42.560 ,1,1,0.,24.0,0.,24.0,0.,24.0,0.,24.0
1979-08-05 05:08:06.560 ,2,1,0.,24.0,0.,24.0,0.,24.0,0.,24.0
1979-08-05 05:08:30.560 ,6,1,0.,24.0,0.,24.0,0.,24.0,0.,24.0
1979-08-05 05:08:54.560 ,5,1,0.,24.0,0.,24.0,0.,24.0,0.,24.0
1979-08-05 05:09:18.560 ,1,1,0.,24.0,0.,24.0,0.,24.0,0.,24.0
1979-08-05 05:09:42.560 ,2,1,0.,24.0,0.,24.0,0.,24.0,0.,24.0
1979-08-05 05:10:06.560 ,6,1,0.,24.0,0.,24.0,0.,24.0,0.,24.0
1979-08-05 05:10:30.560 ,5,1,0.,24.0,0.,24.0,0.,24.0,0.,24.0
1979-08-05 05:10:54.560 ,1,1,0.,24.0,0.,24.0,0.,24.0,0.,24.0
1979-08-05 05:11:18.560 ,2,1,0.,24.0,0.,24.0,0.,24.0,0.,24.0
1979-08-05 05:11:42.560 ,6,1,0.,24.0,0.,24.0,0.,24.0,0.,24.0
1979-08-05 05:12:06.560 ,5,1,0.,24.0,0.,24.0,0.,24.0,0.,24.0
1979-08-05 05:12:30.560 ,1,1,0.,24.0,0.,24.0,0.,24.0,0.,24.0
1979-08-05 05:12:54.560 ,2,1,0.,24.0,0.,24.0,0.,24.0,0.,24.0
1979-08-05 05:13:18.560 ,6,1,0.,24.0,0.,24.0,0.,24.0,0.,24.0
1979-08-05 05:13:42.560 ,5,1,0.,24.0,0.,24.0,0.,24.0,0.,24.0
1979-08-05 05:14:06.560 ,1,1,0.,24.0,0.,24.0,0.,24.0,0.,24.0
1979-08-05 05:14:30.560 ,2,1,0.,24.0,0.,24.0,0.,24.0,0.,24.0
1979-08-05 05:14:54.560 ,6,1,0.,24.0,0.,24.0,0.,24.0,0.,24.0
1979-08-05 05:15:18.560 ,5,1,0.,24.0,0.,24.0,0.,24.0,0.,24.0
1979-08-05 05:15:42.560 ,1,1,1.,24.0,0.,24.0,0.,24.0,0.,24.0
1979-08-05 05:16:06.560 ,2,1,0.,24.0,0.,24.0,0.,24.0,0.,24.0
1979-08-05 05:16:30.560 ,6,1,0.,24.0,0.,24.0,0.,24.0,0.,24.0
1979-08-05 05:16:54.560 ,5,1,0.,24.0,0.,24.0,0.,24.0,0.,24.0
1979-08-05 05:17:18.560 ,1,1,1.,24.0,0.,24.0,0.,24.0,0.,24.0
1979-08-05 05:17:42.560 ,0,0,0.,24.0,0.,24.0,0.,24.0,0.,24.0
1979-08-05 05:18:06.560 ,0,0,0.,24.0,0.,24.0,0.,24.0,0.,24.0
1979-08-05 05:18:30.560 ,5,1,0.,24.0,0.,24.0,0.,24.0,0.,24.0
1979-08-05 05:18:54.560 ,5,0,0.,24.0,0.,24.0,0.,24.0,0.,24.0
1979-08-05 05:19:18.560 ,4,1,0.,24.0,0.,24.0,0.,24.0,0.,24.0
1979-08-05 05:19:42.560 ,4,0,0.,24.0,0.,24.0,0.,24.0,0.,24.0
1979-08-05 05:20:06.560 ,3,1,0.,24.0,0.,24.0,0.,24.0,0.,24.0
1979-08-05 05:20:30.560 ,3,0,0.,24.0,0.,24.0,0.,24.0,0.,24.0
1979-08-05 05:20:54.560 ,2,1,0.,24.0,0.,24.0,0.,24.0,0.,24.0
1979-08-05 05:21:18.560 ,2,0,0.,24.0,0.,24.0,0.,24.0,0.,24.0
1979-08-05 05:21:42.560 ,1,1,0.,24.0,0.,24.0,0.,24.0,0.,24.0
1979-08-05 05:22:06.560 ,1,0,0.,24.0,0.,24.0,0.,24.0,0.,24.0
1979-08-05 05:22:30.560 ,0,1,0.,24.0,0.,24.0,0.,24.0,0.,24.0
1979-08-05 05:22:54.560 ,0,0,0.,24.0,0.,24.0,0.,24.0,0.,24.0
1979-08-05 05:23:18.560 ,0,1,0.,24.0,0.,24.0,0.,24.0,0.,24.0
1979-08-05 05:23:42.560 ,0,0,0.,24.0,0.,24.0,0.,24.0,0.,24.0
1979-08-05 05:24:06.560 ,1,1,0.,24.0,0.,24.0,0.,24.0,0.,24.0
1979-08-05 05:24:30.560 ,1,0,0.,24.0,0.,24.0,0.,24.0,0.,24.0
1979-08-05 05:24:54.560 ,2,1,0.,24.0,0.,24.0,0.,24.0,0.,24.0
1979-08-05 05:25:18.560 ,2,0,0.,24.0,0.,24.0,0.,24.0,0.,24.0
1979-08-05 05:25:42.560 ,3,1,0.,24.0,0.,24.0,0.,24.0,0.,24.0
1979-08-05 05:26:06.560 ,3,0,0.,24.0,0.,24.0,0.,24.0,0.,24.0
1979-08-05 05:26:30.560 ,4,1,0.,24.0,0.,24.0,0.,24.0,0.,24.0
1979-08-05 05:26:54.560 ,4,0,0.,24.0,0.,24.0,0.,24.0,0.,24.0
1979-08-05 05:27:18.560 ,5,1,0.,24.0,0.,24.0,0.,24.0,0.,24.0
1979-08-05 05:27:42.560 ,5,0,0.,24.0,0.,24.0,0.,24.0,0.,24.0
1979-08-05 05:28:06.560 ,6,1,0.,24.0,0.,24.0,0.,24.0,0.,24.0
1979-08-05 05:28:30.560 ,6,0,0.,24.0,0.,24.0,0.,24.0,0.,24.0
1979-08-05 05:28:54.560 ,7,1,0.,24.0,0.,24.0,0.,24.0,0.,24.0
1979-08-05 05:29:18.560 ,7,0,1.,24.0,0.,24.0,0.,24.0,0.,24.0
1979-08-05 05:29:42.560 ,7,1,0.,24.0,0.,24.0,0.,24.0,0.,24.0
1979-08-05 05:30:06.560 ,7,0,0.,24.0,0.,24.0,0.,24.0,0.,24.0
1979-08-05 05:30:30.560 ,6,1,0.,24.0,0.,24.0,0.,24.0,0.,24.0
1979-08-05 05:30:54.560 ,6,0,0.,24.0,0.,24.0,0.,24.0,0.,24.0
1979-08-05 05:31:18.560 ,5,1,0.,24.0,0.,24.0,0.,24.0,0.,24.0
1979-08-05 05:31:42.560 ,5,0,0.,24.0,0.,24.0,0.,24.0,0.,24.0
1979-08-05 05:32:06.560 ,4,1,0.,24.0,0.,24.0,0.,24.0,0.,24.0
1979-08-05 05:32:30.560 ,4,0,0.,24.0,0.,24.0,0.,24.0,0.,24.0
1979-08-05 05:32:54.560 ,3,1,0.,24.0,0.,24.0,0.,24.0,0.,24.0
1979-08-05 05:33:18.560 ,3,0,0.,24.0,0.,24.0,0.,24.0,0.,24.0
1979-08-05 05:33:42.560 ,2,1,0.,24.0,0.,24.0,0.,24.0,0.,24.0